Wind_Speed
6 5 4 5 5 5 6 10 12 14 14 13 12 11 10 9 7 5 3 2 1 0 1 3 4 4 4 4 4 3 2 1 1 1 1 1 0 1 2 2 3 3 3 4 4 4 4 5 5
5 4 3 3 4 3 5 9 12 14 14 13 12 10 9 8 6 5 3 2 1 1 2 3 4 4 5 5 5 4 3 2 1 1 1 1 1 1 1 1 2 2 2 3 3 3 4 4 4
5 3 2 2 1 2 5 8 12 14 15 15 13 10 8 8 6 5 4 2 1 2 3 4 5 5 5 5 5 5 4 3 2 2 2 2 2 2 1 1 1 1 1 2 2 2 3 3 4
4 3 2 1 2 3 4 6 10 14 16 15 13 10 8 8 6 6 5 3 2 1 3 4 6 7 6 6 6 5 4 4 3 3 2 3 3 2 2 1 1 0 1 1 1 1 2 2 3
5 4 3 3 4 3 3 5 9 15 15 15 13 11 9 8 6 5 5 4 2 1 2 5 7 7 7 7 6 6 5 5 5 4 3 3 3 3 3 2 2 2 1 1 1 1 1 1 2
6 5 4 5 5 3 3 6 10 15 17 16 14 11 10 8 6 6 5 4 3 2 2 4 7 7 8 7 7 7 6 6 6 5 4 4 4 4 3 3 3 2 2 1 1 1 1 1 1
6 5 5 6 6 4 3 6 11 15 18 17 14 13 11 7 6 6 6 5 5 4 3 4 6 8 8 8 8 8 7 7 6 6 5 5 5 4 4 4 3 3 2 2 1 1 0 1 1
7 6 7 7 6 4 4 7 12 16 17 16 13 13 12 10 7 6 6 6 5 4 3 4 6 8 9 9 9 8 8 8 8 7 6 6 6 5 5 4 4 3 3 2 2 1 1 1 1
8 8 9 8 6 4 5 8 12 15 16 15 14 14 13 11 8 6 6 6 5 5 4 4 6 7 9 10 11 10 9 8 8 8 7 7 7 6 5 5 4 3 3 2 2 2 1 2 2
9 9 10 10 8 5 6 9 13 15 15 15 15 14 13 12 9 7 7 6 6 5 4 4 6 7 8 9 11 12 11 10 9 9 8 8 7 6 6 5 4 4 3 3 2 2 2 2 2
11 12 13 12 10 7 7 10 13 16 16 15 14 13 12 12 10 8 6 6 6 6 5 5 6 7 8 9 10 12 12 11 10 10 10 9 8 7 6 6 5 4 4 3 3 2 2 2 2
13 14 14 14 12 10 10 12 15 16 16 15 15 13 12 12 11 9 7 6 6 7 6 5 6 7 8 9 10 11 12 12 11 11 11 10 9 8 7 6 6 5 4 4 4 2 3 3 3
15 15 15 15 14 13 13 15 16 16 17 16 14 13 12 13 12 10 8 6 7 7 7 6 6 7 8 9 10 10 11 12 12 12 12 12 10 9 8 7 7 6 5 4 4 3 3 3 2
17 18 16 15 15 14 14 15 16 15 16 16 15 14 14 15 14 11 9 8 7 8 8 7 7 7 8 9 10 11 11 12 11 13 13 12 10 9 8 8 7 6 5 5 5 4 4 3 3
19 18 15 14 14 14 14 15 15 15 16 16 16 16 16 16 14 12 11 9 8 8 8 8 9 9 9 10 11 12 12 11 12 13 13 12 11 10 9 8 8 7 6 5 5 5 5 4 4
19 17 14 13 14 14 14 14 15 15 16 16 17 17 16 15 13 11 11 10 10 9 9 9 10 10 10 10 11 12 12 12 13 14 14 14 13 11 10 9 9 8 7 6 6 5 5 5 5
17 16 15 14 13 12 13 12 14 16 16 17 18 18 17 14 13 11 11 11 11 10 10 10 11 11 12 11 11 13 13 14 14 14 15 15 14 11 11 10 9 9 8 7 7 6 6 6 6
16 17 16 16 14 13 14 14 16 17 17 18 18 17 17 15 13 12 11 11 11 11 11 11 12 12 13 12 13 14 14 15 16 15 15 16 15 13 12 11 10 10 9 8 8 7 7 6 7
19 19 18 16 15 15 15 15 17 18 18 18 17 17 16 15 14 12 12 12 12 12 11 12 13 13 13 13 14 14 15 16 16 16 16 16 16 15 14 13 11 10 10 9 9 8 7 7 7
20 19 17 16 13 13 15 16 18 18 19 19 18 18 17 15 14 12 12 12 12 13 13 13 13 14 14 14 16 16 16 17 16 17 17 17 17 17 16 14 13 12 11 11 10 9 9 8 8
20 18 16 15 13 14 15 18 18 19 19 19 18 17 17 15 13 13 12 12 12 13 13 12 12 13 14 15 16 17 16 16 16 16 17 18 18 18 17 16 15 14 12 12 11 11 10 10 9
19 18 17 16 16 16 17 17 17 18 19 18 17 17 15 14 15 12 11 12 12 13 12 12 12 13 14 15 16 17 17 17 18 18 18 19 19 19 18 17 16 15 14 13 13 12 12 11 11
19 18 18 18 19 19 19 18 17 17 17 17 17 16 14 14 13 12 12 13 13 13 13 13 13 14 15 16 17 17 17 19 19 18 17 19 20 19 19 18 18 17 16 15 14 13 13 13 12
19 19 20 21 21 21 20 20 19 18 18 18 18 16 14 15 13 12 12 13 12 12 13 13 14 14 15 15 15 17 18 19 20 19 19 20 21 20 20 19 19 18 17 16 15 14 14 14 13
20 20 21 22 22 21 21 22 22 21 20 19 19 17 14 12 10 11 11 12 11 11 12 12 12 13 14 15 15 17 19 19 19 20 20 20 21 21 21 20 20 19 18 17 16 15 15 15 14
21 21 22 22 21 19 20 21 19 19 20 19 18 15 12 11 10 10 9 9 9 10 10 10 11 11 13 15 16 17 20 20 19 21 21 21 21 21 22 22 22 20 19 18 17 17 16 16 15
20 21 20 21 20 19 18 18 17 17 19 19 17 14 12 10 10 8 7 8 8 9 9 9 10 11 12 14 15 17 19 20 19 21 22 21 22 21 22 22 22 21 20 19 18 18 17 16 16
19 19 20 21 20 20 18 16 15 15 15 14 15 14 11 9 7 7 6 7 7 7 7 7 8 9 11 13 15 16 17 19 20 21 22 21 20 21 22 23 22 21 20 19 19 18 18 18 17
19 21 22 21 20 20 20 17 14 12 12 12 12 12 10 9 7 6 6 6 7 6 6 7 7 7 8 10 13 14 16 17 19 20 20 21 20 21 21 22 22 21 20 20 20 20 19 19 19
20 21 21 22 21 21 21 18 14 13 12 12 11 10 10 8 6 6 6 7 7 6 5 6 6 6 7 8 10 12 14 16 17 19 19 20 21 21 21 21 21 21 20 20 20 20 20 19 19
Wind_Direction
20 30 42 48 52 50 32 31 25 15 8 6 4 5 6 7 8 3 348 342 325 294 211 201 192 185 179 176 177 180 185 198 251 288 274 257 175 117 110 104 99 91 87 83 80 76 73 77 80
6 15 33 47 60 52 38 23 13 5 359 359 358 357 0 4 6 360 353 332 279 228 221 215 202 190 184 186 188 190 193 200 232 255 263 261 243 212 147 116 106 92 83 78 75 73 73 76 82
350 359 15 40 68 22 24 14 3 355 349 351 354 353 355 2 2 355 356 355 318 249 229 216 205 197 194 195 195 199 198 199 216 243 254 253 246 239 222 173 129 94 68 64 69 71 72 76 87
333 331 333 302 284 349 7 5 354 345 341 343 347 351 352 358 4 355 359 2 341 270 231 215 206 204 203 205 205 205 206 208 218 235 246 252 248 250 247 239 221 262 348 14 48 57 63 73 85
315 306 284 282 290 310 335 340 338 336 337 338 339 345 352 358 5 1 358 359 353 300 239 216 208 209 209 209 212 212 210 214 220 229 241 249 251 255 255 253 263 283 305 320 359 23 45 72 87
305 304 283 276 281 292 313 337 332 327 328 332 330 337 344 349 358 356 348 344 336 315 260 224 215 215 216 218 218 217 215 218 221 226 238 246 253 256 257 259 274 286 299 306 304 343 53 104 108
288 284 267 266 260 268 308 321 312 315 322 328 328 332 344 349 353 350 342 338 330 318 282 241 229 223 220 220 221 221 222 223 222 226 237 245 252 254 255 260 273 276 288 290 285 292 243 159 146
272 265 258 262 260 274 291 297 300 308 319 327 330 330 334 339 348 350 342 334 324 316 291 253 238 229 223 221 221 221 221 221 222 227 236 244 250 251 252 259 268 271 278 275 274 272 223 194 178
261 253 253 252 259 264 275 286 293 303 315 324 330 331 335 339 347 346 336 329 320 311 287 256 241 235 229 224 223 223 220 221 224 228 233 241 246 247 251 259 265 269 271 273 271 254 215 195 181
250 243 246 253 256 262 266 279 290 299 311 320 325 329 333 340 342 339 330 323 316 306 291 262 252 243 235 231 227 224 223 222 228 233 231 238 242 244 249 254 253 254 259 261 261 244 209 195 179
247 241 244 251 256 256 260 266 276 288 300 309 312 321 327 331 331 334 331 321 314 306 295 277 259 248 241 240 232 226 224 225 231 234 232 236 240 242 247 247 246 250 249 248 249 239 211 194 182
247 245 244 246 252 252 252 258 265 277 290 298 302 311 317 318 323 326 328 316 312 304 292 284 268 250 246 245 236 229 226 228 231 233 232 235 237 240 243 244 250 254 247 243 241 237 221 208 204
247 245 246 248 248 250 248 253 260 268 279 285 293 305 312 313 316 319 321 316 305 300 293 282 268 257 251 250 238 232 229 232 232 229 229 230 234 237 238 245 248 251 250 242 243 228 221 209 201
247 245 247 247 250 250 247 249 256 262 271 282 291 302 308 308 310 310 309 305 302 300 292 281 268 262 255 247 238 232 230 229 228 228 226 228 231 232 234 239 241 243 242 240 238 228 219 210 208
246 246 246 247 245 246 247 247 253 259 269 280 290 297 302 302 303 301 301 296 293 292 288 273 264 260 256 249 241 236 232 226 226 226 225 224 222 224 228 232 233 235 237 235 228 223 214 209 202
247 245 241 238 239 242 248 248 247 259 272 283 286 292 293 297 298 294 294 294 286 284 279 265 262 260 258 250 243 233 230 225 224 223 221 218 218 220 224 227 228 233 230 226 224 221 217 209 206
243 240 231 227 230 238 247 247 248 258 269 280 285 290 292 291 292 293 293 293 286 283 280 265 258 259 257 248 240 233 232 226 224 223 220 215 214 217 220 225 228 230 229 226 226 223 220 217 215
236 230 225 225 229 240 251 249 249 256 266 276 283 288 291 286 293 291 291 294 292 286 275 267 260 259 255 245 238 234 231 226 225 224 223 217 216 218 220 224 227 225 226 226 224 225 226 225 221
230 229 228 230 237 246 249 248 248 254 264 273 279 284 289 282 285 286 290 290 288 282 274 268 262 258 252 245 238 232 230 228 225 224 224 220 217 218 219 223 224 222 222 220 220 223 222 223 220
229 229 231 232 235 245 247 246 247 257 265 271 275 283 287 288 282 286 288 286 284 280 280 268 259 257 250 242 237 231 231 227 226 225 225 222 217 217 219 221 222 221 220 220 221 223 223 224 224
228 230 230 231 231 243 250 250 252 258 265 271 279 285 287 287 283 285 287 285 280 282 279 270 260 253 246 239 236 235 233 226 227 226 224 222 220 219 219 219 220 220 220 221 223 225 224 225 229
225 228 233 234 237 242 244 250 254 259 263 275 281 285 285 286 290 291 289 288 285 280 270 269 263 251 243 239 238 235 229 226 228 227 223 221 217 216 216 219 220 221 222 224 225 227 227 228 230
223 225 231 232 236 241 243 247 251 256 263 273 276 278 280 282 286 290 290 288 284 279 271 264 259 251 241 238 237 232 226 225 227 225 222 219 215 214 217 219 219 220 221 223 225 226 228 229 231
221 224 227 231 236 241 243 249 252 257 261 268 273 275 277 283 280 286 285 283 280 277 275 265 256 248 237 236 238 231 226 226 227 225 223 221 217 216 217 219 220 221 223 225 226 226 228 230 232
218 223 227 231 237 242 246 251 257 258 261 266 271 271 275 283 281 286 283 281 278 277 273 262 252 242 234 233 234 230 226 226 226 224 222 220 218 218 219 220 221 222 224 225 225 227 231 233 231
218 224 229 235 239 243 248 255 260 253 256 261 265 266 272 287 289 289 283 278 278 278 270 264 255 241 234 232 231 228 224 225 224 224 223 221 219 218 220 221 220 221 223 224 226 229 232 232 230
219 225 231 236 239 242 247 253 257 255 259 260 260 263 269 284 291 294 286 278 280 281 272 265 254 240 235 231 227 225 222 221 221 222 220 220 219 219 218 219 219 221 224 226 229 231 231 230 231
221 225 230 235 238 241 247 251 252 263 268 264 266 259 257 273 293 309 301 293 288 288 284 268 264 243 236 232 225 222 221 220 218 217 216 215 217 217 216 215 218 221 223 226 228 229 230 229 231
221 223 227 233 241 248 252 252 253 259 265 272 270 263 263 271 279 297 305 296 285 282 284 272 268 258 241 225 221 221 219 217 214 213 212 214 215 215 215 216 219 223 226 227 229 231 232 233 234
225 228 232 236 242 250 256 256 255 258 266 273 280 269 263 260 268 290 298 294 290 279 274 268 265 259 244 227 219 217 214 211 209 209 210 210 211 212 215 217 220 222 225 229 231 232 233 234 238
Height
5900 5899 5899 5898 5898 5898 5896 5895 5894 5893 5893 5893 5892 5891 5891 5891 5890 5891 5889 5887 5888 5888 5888 5888 5888 5889 5890 5891 5892 5893 5894 5895 5896 5896 5896 5897 5897 5897 5896 5896 5896 5896 5895 5895 5895 5895 5895 5894 5894
5900 5899 5899 5899 5898 5897 5896 5894 5894 5893 5893 5893 5892 5892 5891 5890 5889 5888 5887 5887 5887 5887 5888 5888 5889 5889 5890 5891 5893 5894 5895 5895 5896 5897 5897 5897 5898 5898 5897 5897 5897 5897 5896 5896 5896 5896 5895 5895 5895
5900 5899 5899 5898 5897 5896 5895 5894 5893 5893 5893 5893 5893 5892 5891 5890 5889 5888 5887 5887 5887 5887 5887 5888 5888 5889 5890 5891 5893 5894 5895 5895 5896 5897 5898 5898 5898 5898 5898 5898 5898 5898 5897 5897 5897 5896 5896 5896 5896
5900 5899 5898 5898 5896 5895 5894 5893 5892 5892 5893 5893 5892 5892 5891 5890 5889 5887 5886 5886 5886 5886 5886 5887 5888 5889 5890 5891 5892 5894 5895 5895 5896 5897 5898 5898 5899 5899 5899 5899 5899 5898 5898 5898 5897 5897 5897 5897 5896
5899 5898 5898 5896 5895 5894 5893 5892 5891 5891 5892 5892 5891 5891 5890 5889 5888 5887 5886 5886 5885 5886 5886 5886 5887 5889 5890 5891 5892 5893 5894 5895 5896 5897 5898 5899 5899 5899 5899 5899 5899 5899 5899 5898 5898 5898 5897 5897 5897
5899 5898 5897 5896 5895 5893 5892 5891 5891 5892 5891 5891 5891 5890 5889 5889 5887 5886 5885 5885 5885 5885 5885 5886 5887 5888 5889 5890 5892 5893 5894 5895 5896 5897 5898 5899 5899 5899 5900 5900 5899 5899 5899 5898 5898 5898 5898 5898 5898
5898 5897 5896 5896 5894 5892 5891 5891 5892 5892 5891 5891 5890 5889 5888 5888 5887 5885 5884 5884 5884 5884 5885 5885 5886 5887 5888 5889 5891 5892 5893 5894 5895 5896 5898 5898 5899 5899 5899 5900 5899 5899 5899 5899 5898 5898 5898 5898 5898
5896 5896 5895 5894 5893 5892 5892 5891 5890 5890 5890 5890 5889 5888 5887 5887 5886 5885 5883 5883 5883 5884 5884 5885 5885 5886 5887 5888 5890 5891 5892 5893 5894 5896 5897 5898 5898 5899 5899 5899 5899 5899 5899 5899 5898 5898 5898 5898 5898
5894 5895 5893 5892 5891 5891 5891 5890 5890 5889 5889 5888 5887 5886 5886 5885 5885 5884 5883 5882 5883 5883 5883 5883 5884 5885 5886 5887 5888 5890 5891 5892 5893 5895 5896 5897 5898 5898 5899 5899 5899 5898 5898 5898 5898 5898 5898 5898 5898
5892 5892 5891 5891 5890 5889 5889 5889 5888 5887 5887 5887 5886 5885 5884 5884 5883 5883 5882 5881 5881 5882 5882 5882 5882 5883 5884 5885 5886 5888 5889 5891 5892 5893 5895 5896 5897 5897 5898 5898 5898 5898 5898 5898 5898 5898 5898 5898 5898
5889 5890 5889 5888 5887 5887 5887 5887 5886 5886 5886 5886 5885 5884 5883 5882 5882 5882 5881 5880 5880 5880 5880 5881 5881 5882 5883 5884 5885 5886 5887 5889 5891 5892 5893 5895 5896 5897 5897 5897 5897 5897 5897 5898 5898 5898 5898 5898 5898
5887 5887 5886 5886 5884 5884 5885 5885 5884 5884 5885 5884 5883 5883 5882 5881 5881 5881 5880 5879 5879 5879 5878 5879 5879 5880 5881 5881 5882 5884 5885 5887 5889 5890 5891 5893 5894 5895 5896 5897 5897 5897 5897 5897 5897 5898 5898 5898 5898
5883 5884 5883 5883 5882 5882 5882 5883 5882 5882 5882 5882 5882 5881 5880 5879 5879 5878 5878 5877 5877 5877 5876 5876 5877 5878 5878 5879 5880 5882 5883 5885 5886 5888 5889 5891 5893 5894 5895 5896 5896 5896 5896 5897 5897 5897 5897 5897 5897
5879 5879 5879 5879 5879 5879 5880 5880 5879 5879 5879 5879 5879 5878 5878 5877 5876 5875 5875 5875 5875 5874 5874 5874 5875 5875 5876 5877 5878 5879 5881 5882 5884 5886 5887 5889 5891 5892 5894 5894 5895 5895 5896 5896 5896 5897 5897 5897 5897
5874 5876 5876 5876 5876 5876 5876 5876 5876 5876 5876 5876 5876 5876 5875 5874 5873 5873 5872 5872 5872 5871 5871 5871 5872 5873 5873 5874 5875 5876 5878 5880 5881 5883 5885 5887 5889 5890 5892 5893 5894 5894 5895 5895 5895 5896 5896 5897 5897
5870 5872 5873 5873 5873 5873 5874 5874 5873 5872 5873 5873 5873 5873 5872 5872 5871 5870 5869 5869 5869 5868 5868 5868 5869 5869 5870 5871 5872 5873 5875 5877 5879 5881 5883 5885 5887 5889 5890 5891 5892 5893 5894 5894 5895 5895 5896 5896 5897
5866 5868 5868 5869 5869 5870 5870 5870 5870 5869 5870 5870 5870 5869 5868 5868 5868 5867 5866 5865 5864 5865 5864 5865 5865 5866 5866 5868 5869 5871 5873 5874 5876 5878 5880 5882 5884 5886 5888 5890 5891 5892 5892 5893 5894 5895 5895 5896 5896
5862 5863 5864 5865 5866 5866 5866 5867 5866 5866 5867 5867 5867 5867 5866 5865 5865 5863 5862 5861 5861 5860 5860 5861 5862 5862 5862 5864 5865 5867 5869 5872 5874 5875 5877 5879 5882 5884 5886 5888 5889 5890 5891 5892 5892 5893 5894 5894 5895
5857 5858 5860 5862 5862 5862 5862 5863 5863 5863 5863 5863 5863 5863 5862 5861 5861 5860 5859 5858 5858 5857 5857 5857 5858 5858 5859 5860 5862 5864 5866 5868 5870 5872 5874 5876 5879 5881 5883 5885 5887 5888 5889 5890 5891 5891 5892 5893 5894
5852 5854 5856 5858 5858 5858 5858 5859 5859 5860 5860 5860 5859 5860 5859 5858 5857 5856 5855 5854 5853 5853 5852 5852 5853 5854 5855 5856 5858 5860 5862 5864 5866 5869 5871 5873 5876 5879 5881 5883 5884 5886 5887 5888 5889 5890 5891 5892 5893
5849 5851 5852 5853 5854 5855 5855 5856 5856 5856 5857 5857 5856 5856 5855 5855 5854 5852 5851 5850 5849 5849 5849 5848 5848 5850 5851 5852 5854 5857 5859 5861 5863 5866 5868 5870 5873 5876 5878 5880 5882 5883 5885 5886 5887 5888 5890 5891 5892
5844 5847 5848 5849 5850 5850 5852 5852 5853 5853 5853 5854 5854 5853 5852 5851 5850 5848 5847 5846 5846 5845 5845 5844 5845 5845 5846 5848 5850 5853 5856 5858 5860 5862 5864 5867 5869 5872 5875 5876 5879 5881 5882 5883 5885 5886 5887 5889 5890
5840 5842 5844 5845 5846 5847 5847 5849 5850 5850 5850 5850 5850 5849 5848 5847 5846 5845 5843 5842 5842 5842 5841 5840 5840 5841 5842 5844 5846 5848 5851 5854 5856 5858 5861 5863 5866 5869 5871 5874 5875 5877 5879 5881 5882 5883 5885 5886 5887
5836 5837 5839 5840 5841 5843 5844 5845 5846 5847 5847 5847 5847 5845 5844 5844 5842 5841 5839 5839 5838 5837 5837 5836 5836 5836 5837 5839 5841 5844 5847 5849 5852 5854 5857 5860 5862 5865 5868 5870 5872 5874 5876 5877 5879 5880 5882 5883 5885
5831 5833 5835 5836 5837 5839 5840 5840 5842 5842 5842 5843 5843 5842 5841 5839 5838 5837 5836 5835 5834 5833 5833 5832 5831 5832 5833 5835 5837 5840 5843 5845 5847 5850 5853 5856 5859 5861 5864 5866 5868 5870 5872 5874 5876 5877 5879 5880 5882
5826 5829 5831 5833 5834 5836 5836 5836 5838 5837 5838 5838 5838 5838 5838 5836 5835 5834 5833 5831 5830 5829 5829 5829 5828 5827 5829 5831 5833 5835 5838 5841 5843 5846 5849 5851 5854 5857 5860 5862 5865 5867 5868 5870 5872 5874 5875 5877 5878
5822 5824 5827 5829 5830 5832 5832 5833 5834 5833 5833 5833 5833 5834 5834 5833 5832 5830 5829 5827 5826 5826 5826 5825 5824 5824 5826 5828 5829 5831 5833 5836 5838 5841 5844 5847 5850 5853 5855 5858 5861 5863 5865 5867 5869 5870 5872 5873 5875
5819 5821 5823 5824 5826 5827 5829 5830 5830 5829 5829 5829 5829 5830 5830 5830 5829 5828 5827 5825 5825 5824 5823 5823 5822 5822 5824 5825 5826 5828 5830 5832 5834 5837 5840 5843 5846 5849 5852 5855 5857 5859 5861 5863 5865 5866 5868 5870 5871
5815 5817 5818 5820 5822 5823 5825 5828 5827 5826 5826 5826 5826 5826 5826 5827 5826 5825 5824 5824 5823 5822 5822 5821 5822 5821 5821 5822 5824 5824 5826 5829 5831 5833 5836 5840 5842 5845 5848 5851 5854 5856 5857 5859 5861 5862 5864 5866 5867
5810 5812 5815 5817 5818 5819 5820 5825 5823 5824 5824 5823 5823 5823 5823 5823 5823 5823 5822 5821 5821 5821 5820 5820 5820 5820 5820 5821 5822 5823 5824 5826 5828 5831 5834 5837 5839 5842 5845 5847 5850 5852 5853 5855 5857 5858 5860 5862 5863